Date,TemperatureHighF,TemperatureAvgF,TemperatureLowF,DewpointHighF,DewpointAvgF,DewpointLowF,HumidityHigh,HumidityAvg,HumidityLow,PressureMaxIn,PressureMinIn,WindSpeedMaxMPH,WindSpeedAvgMPH,GustSpeedMaxMPH,PrecipitationSumIn
2013-10-1,79.9,62.8,47.2,58.4,52.6,45.5,96,73,37,29.78,29.66,7,0,7,0.00
2013-10-2,78.4,66.1,54.8,60.0,56.4,51.4,93,73,50,29.78,29.66,16,2,16,0.00
2013-10-3,75.5,63.5,55.4,57.4,51.4,41.8,91,68,30,29.91,29.78,10,1,10,0.00
2013-10-4,60.2,56.9,52.3,55.9,50.2,46.0,92,79,65,29.91,29.85,2,0,2,0.01
2013-10-5,66.4,63.4,60.2,58.7,57.1,56.2,93,80,73,29.94,29.88,0,0,0,0.00
2013-10-6,60.2,54.9,51.6,58.8,54.3,50.9,100,98,93,30.04,29.92,7,0,7,0.13
2013-10-7,75.2,61.2,54.1,73.1,59.4,53.6,100,94,74,29.95,29.60,21,1,21,0.00
2013-10-8,67.1,55.4,42.2,53.8,45.0,37.9,90,71,38,30.19,29.71,9,0,9,0.00
2013-10-9,62.9,49.2,39.4,46.4,42.1,37.5,95,79,48,30.29,30.17,8,0,8,0.00
2013-10-10,58.6,49.6,40.4,51.2,45.5,39.0,98,87,63,30.17,29.99,1,0,1,0.00
2013-10-11,70.3,55.7,45.6,53.5,45.3,31.0,99,74,24,29.99,29.91,3,0,5,0.00
2013-10-12,56.1,52.0,46.9,54.9,50.8,45.4,97,95,88,30.21,29.96,9,0,9,0.00
2013-10-13,56.7,50.2,41.5,51.2,46.6,39.8,98,88,71,30.25,30.18,7,0,7,0.00
2013-10-14,69.4,51.0,36.8,51.5,42.7,35.8,99,77,36,30.21,30.05,2,0,2,0.00
2013-10-15,66.1,57.0,50.3,54.7,50.8,46.8,94,81,62,30.08,29.99,5,0,5,0.00
2013-10-16,59.2,54.2,48.9,53.7,50.5,47.2,98,88,69,30.00,29.72,3,0,3,0.00
2013-10-17,72.6,58.8,46.5,59.5,51.9,45.3,99,81,45,29.73,29.52,16,1,16,0.00
2013-10-18,64.7,58.6,44.2,61.1,49.4,40.9,97,73,46,29.72,29.41,22,2,22,0.06
2013-10-19,66.5,52.8,39.7,47.1,40.9,36.9,96,68,36,29.77,29.55,11,0,11,0.00
2013-10-20,60.7,52.7,43.4,50.6,39.2,30.6,90,62,33,29.83,29.49,16,2,18,0.01
2013-10-21,65.5,52.7,41.7,42.8,38.1,34.5,81,60,33,29.91,29.79,14,1,14,0.00
2013-10-22,63.2,53.1,45.3,50.4,43.8,36.3,94,72,54,29.80,29.51,18,1,18,0.00
2013-10-23,50.4,44.7,36.4,36.8,33.2,29.5,88,65,45,29.61,29.39,10,0,10,0.00
2013-10-24,52.1,45.3,37.5,34.9,29.0,21.7,78,55,33,29.70,29.45,25,3,25,0.00
2013-10-25,50.7,41.8,32.1,34.4,29.5,23.2,88,63,37,29.95,29.69,17,1,17,0.00
2013-10-26,53.4,41.7,29.1,37.7,27.7,21.7,93,62,30,29.95,29.67,22,2,22,0.00
2013-10-27,53.1,47.0,38.5,35.3,31.4,26.1,73,55,38,29.86,29.59,22,3,22,0.00
2013-10-28,56.0,43.4,33.3,35.6,30.3,22.1,87,62,38,30.16,29.86,14,1,19,0.00
2013-10-29,50.7,36.3,28.1,25.8,21.0,15.0,81,57,27,30.25,30.15,10,0,10,0.00
2013-10-30,53.2,40.2,29.8,38.4,29.7,19.5,88,67,54,30.16,29.99,17,0,17,0.00
2013-10-31,60.2,46.1,32.5,59.0,44.3,30.4,98,93,85,30.05,29.59,12,0,12,0.07